| time (UTC) | temp F | wind direction | speed MPH | gust MPH | rain 1hr in | rain 24hr in | rain mn in | humidity % | barometer mb |
| 20260902150026 | 86 | 0.0 | 2.0 | 0.00 | 0.00 | 0.00 | 63 | 1016.4 | |
| 20260902145522 | 85 | 0.0 | 2.0 | 0.00 | 0.00 | 0.00 | 64 | 1016.4 | |
| 20260902145020 | 85 | 0.0 | 0.0 | 0.00 | 0.00 | 0.00 | 66 | 1016.4 | |
| 20260902144518 | 85 | 0.0 | 3.0 | 0.00 | 0.00 | 0.00 | 65 | 1016.5 | |
| 20260902144016 | 84 | 0.0 | 3.0 | 0.00 | 0.00 | 0.00 | 67 | 1016.5 | |
| 20260902143512 | 84 | 0.0 | 3.0 | 0.00 | 0.00 | 0.00 | 67 | 1016.4 | |
| 20260902143010 | 84 | 193 | 1.0 | 3.0 | 0.00 | 0.00 | 0.00 | 67 | 1016.4 |
| 20260902142508 | 83 | 1.0 | 4.0 | 0.00 | 0.00 | 0.00 | 68 | 1016.4 | |
| 20260902142006 | 83 | 193 | 1.0 | 4.0 | 0.00 | 0.00 | 0.00 | 70 | 1016.5 |
| 20260902141502 | 82 | 193 | 1.0 | 4.0 | 0.00 | 0.00 | 0.00 | 71 | 1016.4 |
| 20260902141000 | 82 | 0.0 | 1.0 | 0.00 | 0.00 | 0.00 | 72 | 1016.3 | |
| 20260902140458 | 81 | 0.0 | 0.0 | 0.00 | 0.00 | 0.00 | 74 | 1016.3 | |
| 20260902135956 | 81 | 0.0 | 0.0 | 0.00 | 0.00 | 0.00 | 73 | 1016.3 | |
| 20260902135452 | 80 | 0.0 | 0.0 | 0.00 | 0.00 | 0.00 | 74 | 1016.2 | |
| 20260902134950 | 80 | 0.0 | 0.0 | 0.00 | 0.00 | 0.00 | 75 | 1016.2 | |
| 20260902134448 | 79 | 0.0 | 0.0 | 0.00 | 0.00 | 0.00 | 75 | 1016.2 | |
| 20260902133946 | 79 | 0.0 | 0.0 | 0.00 | 0.00 | 0.00 | 77 | 1016.3 | |
| 20260902133442 | 78 | 0.0 | 0.0 | 0.00 | 0.00 | 0.00 | 77 | 1016.2 | |
| 20260902132940 | 78 | 0.0 | 0.0 | 0.00 | 0.00 | 0.00 | 79 | 1016.1 | |
| 20260902132438 | 77 | 0.0 | 0.0 | 0.00 | 0.00 | 0.00 | 80 | 1016.1 | |
| 20260902131935 | 77 | 0.0 | 0.0 | 0.00 | 0.00 | 0.00 | 81 | 1016.0 | |
| 20260902131432 | 77 | 0.0 | 0.0 | 0.00 | 0.00 | 0.00 | 82 | 1016.0 | |
| 20260902130929 | 76 | 0.0 | 0.0 | 0.00 | 0.00 | 0.00 | 82 | 1016.0 | |
| 20260902130427 | 76 | 0.0 | 0.0 | 0.00 | 0.00 | 0.00 | 82 | 1015.8 | |
| 20260902125925 | 75 | 0.0 | 0.0 | 0.00 | 0.00 | 0.00 | 83 | 1015.7 | |
| 20260902125421 | 75 | 0.0 | 0.0 | 0.00 | 0.00 | 0.00 | 83 | 1015.8 | |
| 20260902124919 | 75 | 0.0 | 0.0 | 0.00 | 0.00 | 0.00 | 82 | 1015.7 | |
| 20260902124417 | 75 | 0.0 | 0.0 | 0.00 | 0.00 | 0.00 | 82 | 1015.7 | |
| 20260902123915 | 75 | 0.0 | 0.0 | 0.00 | 0.00 | 0.00 | 82 | 1015.6 | |
| 20260902123411 | 75 | 0.0 | 0.0 | 0.00 | 0.00 | 0.00 | 82 | 1015.6 | |
| 20260902122909 | 76 | 0.0 | 0.0 | 0.00 | 0.00 | 0.00 | 82 | 1015.6 | |
| 20260902122407 | 76 | 0.0 | 0.0 | 0.00 | 0.00 | 0.00 | 81 | 1015.7 | |
| 20260902121903 | 76 | 0.0 | 0.0 | 0.00 | 0.00 | 0.00 | 81 | 1015.6 | |
| 20260902121401 | 76 | 0.0 | 0.0 | 0.00 | 0.00 | 0.00 | 81 | 1015.6 | |
| 20260902120859 | 76 | 0.0 | 0.0 | 0.00 | 0.00 | 0.00 | 81 | 1015.5 | |
| 20260902120355 | 76 | 0.0 | 0.0 | 0.00 | 0.00 | 0.00 | 80 | 1015.5 | |
| 20260902115853 | 76 | 0.0 | 0.0 | 0.00 | 0.00 | 0.00 | 80 | 1015.5 | |
| 20260902115351 | 76 | 0.0 | 0.0 | 0.00 | 0.00 | 0.00 | 80 | 1015.5 | |
| 20260902114849 | 76 | 0.0 | 0.0 | 0.00 | 0.00 | 0.00 | 80 | 1015.4 | |
| 20260902114345 | 76 | 0.0 | 0.0 | 0.00 | 0.00 | 0.00 | 80 | 1015.3 | |
| 20260902113843 | 76 | 0.0 | 0.0 | 0.00 | 0.00 | 0.00 | 80 | 1015.3 | |
| 20260902113341 | 76 | 0.0 | 0.0 | 0.00 | 0.00 | 0.00 | 81 | 1015.3 | |
| 20260902112839 | 76 | 0.0 | 0.0 | 0.00 | 0.00 | 0.00 | 81 | 1015.2 | |
| 20260902112335 | 76 | 0.0 | 0.0 | 0.00 | 0.00 | 0.00 | 81 | 1015.2 | |
| 20260902111833 | 76 | 0.0 | 0.0 | 0.00 | 0.00 | 0.00 | 81 | 1015.2 | |
| 20260902111331 | 76 | 0.0 | 0.0 | 0.00 | 0.00 | 0.00 | 81 | 1015.2 | |
| 20260902110829 | 76 | 0.0 | 1.0 | 0.00 | 0.00 | 0.00 | 81 | 1015.2 | |
| 20260902110325 | 76 | 0.0 | 2.0 | 0.00 | 0.00 | 0.00 | 81 | 1015.1 | |
| 20260902105823 | 76 | 0.0 | 2.0 | 0.00 | 0.00 | 0.00 | 81 | 1015.1 | |
| 20260902105321 | 76 | 0.0 | 0.0 | 0.00 | 0.00 | 0.00 | 82 | 1015.1 | |
| 20260902104819 | 76 | 0.0 | 0.0 | 0.00 | 0.00 | 0.00 | 82 | 1015.1 | |
| 20260902104315 | 76 | 0.0 | 0.0 | 0.00 | 0.00 | 0.00 | 82 | 1015.2 | |
| 20260902103813 | 76 | 0.0 | 0.0 | 0.00 | 0.00 | 0.00 | 82 | 1015.2 | |
| 20260902103311 | 76 | 0.0 | 0.0 | 0.00 | 0.00 | 0.00 | 83 | 1015.2 | |
| 20260902102809 | 76 | 0.0 | 0.0 | 0.00 | 0.00 | 0.00 | 83 | 1015.1 | |
| 20260902102307 | 76 | 0.0 | 0.0 | 0.00 | 0.00 | 0.00 | 82 | 1015.1 | |
| 20260902101803 | 76 | 0.0 | 0.0 | 0.00 | 0.00 | 0.00 | 82 | 1015.2 | |
| 20260902101301 | 76 | 0.0 | 0.0 | 0.00 | 0.00 | 0.00 | 81 | 1015.2 | |
| 20260902100759 | 76 | 0.0 | 0.0 | 0.00 | 0.00 | 0.00 | 81 | 1015.2 | |
| 20260902100255 | 76 | 0.0 | 0.0 | 0.00 | 0.00 | 0.00 | 81 | 1015.3 | |
| 20260902095753 | 76 | 0.0 | 0.0 | 0.00 | 0.00 | 0.00 | 81 | 1015.3 | |
| 20260902095251 | 76 | 0.0 | 0.0 | 0.00 | 0.00 | 0.00 | 81 | 1015.3 | |
| 20260902094749 | 76 | 0.0 | 0.0 | 0.00 | 0.00 | 0.00 | 81 | 1015.3 | |
| 20260902094245 | 76 | 0.0 | 0.0 | 0.00 | 0.00 | 0.00 | 81 | 1015.3 | |
| 20260902093743 | 76 | 0.0 | 0.0 | 0.00 | 0.00 | 0.00 | 80 | 1015.3 | |
| 20260902093239 | 77 | 0.0 | 0.0 | 0.00 | 0.00 | 0.00 | 79 | 1015.3 | |
| 20260902092737 | 77 | 0.0 | 0.0 | 0.00 | 0.00 | 0.00 | 79 | 1015.4 | |
| 20260902092235 | 77 | 0.0 | 0.0 | 0.00 | 0.00 | 0.00 | 79 | 1015.4 | |
| 20260902091733 | 77 | 0.0 | 0.0 | 0.00 | 0.00 | 0.00 | 79 | 1015.4 | |
| 20260902091230 | 77 | 0.0 | 0.0 | 0.00 | 0.00 | 0.00 | 80 | 1015.4 | |
| 20260902090727 | 77 | 0.0 | 0.0 | 0.00 | 0.00 | 0.00 | 79 | 1015.5 | |
| 20260902090225 | 78 | 0.0 | 0.0 | 0.00 | 0.00 | 0.00 | 77 | 1015.5 | |
| 20260902085723 | 78 | 0.0 | 0.0 | 0.00 | 0.00 | 0.00 | 77 | 1015.5 | |
| 20260902085219 | 78 | 0.0 | 0.0 | 0.00 | 0.00 | 0.00 | 77 | 1015.4 | |
| 20260902084717 | 78 | 0.0 | 0.0 | 0.00 | 0.00 | 0.00 | 76 | 1015.4 | |
| 20260902084215 | 78 | 0.0 | 0.0 | 0.00 | 0.00 | 0.00 | 76 | 1015.3 | |
| 20260902083713 | 78 | 0.0 | 0.0 | 0.00 | 0.00 | 0.00 | 76 | 1015.4 | |
| 20260902083209 | 78 | 0.0 | 0.0 | 0.00 | 0.00 | 0.00 | 76 | 1015.4 | |
| 20260902082707 | 78 | 0.0 | 0.0 | 0.00 | 0.00 | 0.00 | 76 | 1015.4 | |
| 20260902082205 | 78 | 0.0 | 0.0 | 0.00 | 0.00 | 0.00 | 76 | 1015.5 | |
| 20260902081703 | 78 | 0.0 | 0.0 | 0.00 | 0.00 | 0.00 | 75 | 1015.5 | |
| 20260902081159 | 78 | 0.0 | 0.0 | 0.00 | 0.00 | 0.00 | 75 | 1015.5 | |
| 20260902080657 | 78 | 0.0 | 0.0 | 0.00 | 0.00 | 0.00 | 75 | 1015.5 | |
| 20260902080155 | 79 | 0.0 | 0.0 | 0.00 | 0.00 | 0.00 | 75 | 1015.5 | |
| 20260902075653 | 79 | 0.0 | 0.0 | 0.00 | 0.00 | 0.00 | 75 | 1015.5 | |
| 20260902075149 | 79 | 0.0 | 0.0 | 0.00 | 0.00 | 0.00 | 74 | 1015.6 | |
| 20260902074647 | 79 | 0.0 | 0.0 | 0.00 | 0.00 | 0.00 | 74 | 1015.6 | |
| 20260902074145 | 79 | 0.0 | 0.0 | 0.00 | 0.00 | 0.00 | 73 | 1015.7 | |
| 20260902073643 | 79 | 0.0 | 0.0 | 0.00 | 0.00 | 0.00 | 73 | 1015.6 | |
| 20260902073139 | 79 | 0.0 | 0.0 | 0.00 | 0.00 | 0.00 | 73 | 1015.7 | |
| 20260902072637 | 80 | 0.0 | 0.0 | 0.00 | 0.00 | 0.00 | 72 | 1015.6 | |
| 20260902072135 | 80 | 0.0 | 0.0 | 0.00 | 0.00 | 0.00 | 72 | 1015.6 | |
| 20260902071633 | 80 | 0.0 | 0.0 | 0.00 | 0.00 | 0.00 | 71 | 1015.6 | |
| 20260902071129 | 80 | 0.0 | 0.0 | 0.00 | 0.00 | 0.00 | 71 | 1015.7 | |
| 20260902070627 | 80 | 0.0 | 0.0 | 0.00 | 0.00 | 0.00 | 71 | 1015.8 | |
| 20260902070123 | 80 | 0.0 | 0.0 | 0.00 | 0.00 | 0.00 | 70 | 1015.8 | |
| 20260902065621 | 80 | 0.0 | 1.0 | 0.00 | 0.00 | 0.00 | 70 | 1015.7 | |
| 20260902065119 | 81 | 0.0 | 1.0 | 0.00 | 0.00 | 0.00 | 69 | 1015.8 | |
| 20260902064617 | 81 | 0.0 | 0.0 | 0.00 | 0.00 | 0.00 | 69 | 1016.0 | |
| 20260902064113 | 81 | 0.0 | 0.0 | 0.00 | 0.00 | 0.00 | 69 | 1015.9 | |
| 20260902063611 | 81 | 0.0 | 0.0 | 0.00 | 0.00 | 0.00 | 68 | 1016.0 | |
| 20260902063109 | 81 | 0.0 | 0.0 | 0.00 | 0.00 | 0.00 | 68 | 1015.9 | |
| 20260902062607 | 82 | 0.0 | 0.0 | 0.00 | 0.00 | 0.00 | 67 | 1015.9 | |
| 20260902062103 | 82 | 0.0 | 0.0 | 0.00 | 0.00 | 0.00 | 67 | 1015.9 | |
| 20260902061601 | 82 | 0.0 | 0.0 | 0.00 | 0.00 | 0.00 | 68 | 1016.0 | |
| 20260902061059 | 82 | 0.0 | 0.0 | 0.00 | 0.00 | 0.00 | 67 | 1015.9 | |
| 20260902060557 | 83 | 0.0 | 0.0 | 0.00 | 0.00 | 0.00 | 67 | 1015.9 | |
| 20260902060053 | 83 | 0.0 | 0.0 | 0.00 | 0.00 | 0.00 | 67 | 1016.0 | |
| 20260902055551 | 83 | 0.0 | 0.0 | 0.00 | 0.00 | 0.00 | 66 | 1015.8 | |
| 20260902055049 | 83 | 0.0 | 0.0 | 0.00 | 0.00 | 0.00 | 66 | 1015.8 | |
| 20260902054547 | 83 | 0.0 | 0.0 | 0.00 | 0.00 | 0.00 | 66 | 1015.7 | |
| 20260902054043 | 84 | 0.0 | 0.0 | 0.00 | 0.00 | 0.00 | 66 | 1015.6 | |
| 20260902053541 | 84 | 0.0 | 0.0 | 0.00 | 0.00 | 0.00 | 66 | 1015.6 | |
| 20260902053039 | 84 | 0.0 | 1.0 | 0.00 | 0.00 | 0.00 | 65 | 1015.6 | |
| 20260902052537 | 84 | 0.0 | 2.0 | 0.00 | 0.00 | 0.00 | 65 | 1015.5 | |
| 20260902052033 | 84 | 0.0 | 3.0 | 0.00 | 0.00 | 0.00 | 65 | 1015.6 | |
| 20260902051531 | 84 | 0.0 | 3.0 | 0.00 | 0.00 | 0.00 | 64 | 1015.6 | |
| 20260902051029 | 84 | 0.0 | 3.0 | 0.00 | 0.00 | 0.00 | 64 | 1015.6 | |
| 20260902050527 | 84 | 0.0 | 3.0 | 0.00 | 0.00 | 0.00 | 64 | 1015.6 | |
| 20260902050023 | 84 | 0.0 | 3.0 | 0.00 | 0.00 | 0.00 | 64 | 1015.7 | |
| 20260902045520 | 85 | 0.0 | 0.0 | 0.00 | 0.00 | 0.00 | 63 | 1015.6 | |
| 20260902045018 | 85 | 0.0 | 0.0 | 0.00 | 0.00 | 0.00 | 63 | 1015.7 | |
| 20260902044516 | 85 | 0.0 | 2.0 | 0.00 | 0.00 | 0.00 | 63 | 1015.7 | |
| 20260902044012 | 85 | 0.0 | 2.0 | 0.00 | 0.00 | 0.00 | 63 | 1015.6 | |
| 20260902043510 | 85 | 0.0 | 3.0 | 0.00 | 0.00 | 0.00 | 63 | 1015.7 | |
| 20260902043008 | 85 | 0.0 | 3.0 | 0.00 | 0.00 | 0.00 | 63 | 1015.7 | |
| 20260902042506 | 85 | 0.0 | 0.0 | 0.00 | 0.00 | 0.00 | 63 | 1015.6 | |
| 20260902042002 | 85 | 0.0 | 1.0 | 0.00 | 0.00 | 0.00 | 63 | 1015.7 | |
| 20260902041500 | 85 | 0.0 | 1.0 | 0.00 | 0.00 | 0.00 | 63 | 1015.6 | |
| 20260902040958 | 85 | 0.0 | 0.0 | 0.00 | 0.00 | 0.00 | 62 | 1015.6 | |
| 20260902040456 | 85 | 0.0 | 0.0 | 0.00 | 0.00 | 0.00 | 62 | 1015.5 | |
| 20260902035952 | 85 | 0.0 | 0.0 | 0.00 | 0.00 | 0.00 | 62 | 1015.6 | |
| 20260902035450 | 85 | 0.0 | 0.0 | 0.00 | 0.00 | 0.00 | 61 | 1015.5 | |
| 20260902034948 | 86 | 0.0 | 0.0 | 0.00 | 0.00 | 0.00 | 61 | 1015.5 | |
| 20260902034444 | 86 | 0.0 | 0.0 | 0.00 | 0.00 | 0.00 | 60 | 1015.4 | |
| 20260902033942 | 86 | 0.0 | 0.0 | 0.00 | 0.00 | 0.00 | 60 | 1015.4 | |
| 20260902033440 | 86 | 0.0 | 0.0 | 0.00 | 0.00 | 0.00 | 60 | 1015.3 | |
| 20260902032936 | 86 | 0.0 | 0.0 | 0.00 | 0.00 | 0.00 | 60 | 1015.2 | |
| 20260902032434 | 87 | 0.0 | 0.0 | 0.00 | 0.00 | 0.00 | 59 | 1015.2 | |
| 20260902031932 | 87 | 0.0 | 0.0 | 0.00 | 0.00 | 0.00 | 58 | 1015.1 | |
| 20260902031430 | 87 | 0.0 | 0.0 | 0.00 | 0.00 | 0.00 | 58 | 1015.1 | |
| 20260902030926 | 87 | 0.0 | 2.0 | 0.00 | 0.00 | 0.00 | 57 | 1015.1 | |
| 20260902030424 | 87 | 0.0 | 2.0 | 0.00 | 0.00 | 0.00 | 57 | 1014.9 | |
| 20260902025922 | 87 | 0.0 | 2.0 | 0.00 | 0.00 | 0.00 | 57 | 1014.9 | |
| 20260902025420 | 87 | 0.0 | 0.0 | 0.00 | 0.00 | 0.00 | 57 | 1014.7 | |
| 20260902024916 | 87 | 0.0 | 0.0 | 0.00 | 0.00 | 0.00 | 56 | 1014.6 | |
| 20260902024414 | 87 | 0.0 | 0.0 | 0.00 | 0.00 | 0.00 | 56 | 1014.4 | |
| 20260902023912 | 87 | 0.0 | 0.0 | 0.00 | 0.00 | 0.00 | 56 | 1014.4 | |
| 20260902023410 | 88 | 0.0 | 0.0 | 0.00 | 0.00 | 0.00 | 56 | 1014.3 | |
| 20260902022906 | 88 | 0.0 | 0.0 | 0.00 | 0.00 | 0.00 | 55 | 1014.1 | |
| 20260902022404 | 88 | 0.0 | 2.0 | 0.00 | 0.00 | 0.00 | 55 | 1014.1 | |
| 20260902021902 | 88 | 0.0 | 2.0 | 0.00 | 0.00 | 0.00 | 54 | 1014.0 | |
| 20260902021400 | 88 | 0.0 | 0.0 | 0.00 | 0.00 | 0.00 | 53 | 1013.9 | |
| 20260902020856 | 88 | 0.0 | 0.0 | 0.00 | 0.00 | 0.00 | 53 | 1013.9 | |
| 20260902020354 | 88 | 0.0 | 0.0 | 0.00 | 0.00 | 0.00 | 52 | 1013.8 | |
| 20260902015852 | 89 | 0.0 | 0.0 | 0.00 | 0.00 | 0.00 | 52 | 1013.8 | |
| 20260902015350 | 89 | 0.0 | 0.0 | 0.00 | 0.00 | 0.00 | 52 | 1013.6 | |
| 20260902014846 | 89 | 0.0 | 0.0 | 0.00 | 0.00 | 0.00 | 52 | 1013.6 | |
| 20260902014344 | 90 | 0.0 | 0.0 | 0.00 | 0.00 | 0.00 | 51 | 1013.6 | |
| 20260902013840 | 90 | 0.0 | 0.0 | 0.00 | 0.00 | 0.00 | 51 | 1013.6 | |
| 20260902013338 | 90 | 0.0 | 0.0 | 0.00 | 0.00 | 0.00 | 51 | 1013.6 | |
| 20260902012837 | 90 | 0.0 | 0.0 | 0.00 | 0.00 | 0.00 | 49 | 1013.5 | |
| 20260902012335 | 91 | 0.0 | 1.0 | 0.00 | 0.00 | 0.00 | 49 | 1013.4 | |
| 20260902011833 | 91 | 0.0 | 1.0 | 0.00 | 0.00 | 0.00 | 49 | 1013.4 | |
| 20260902011331 | 91 | 0.0 | 1.0 | 0.00 | 0.00 | 0.00 | 48 | 1013.3 | |
| 20260902010827 | 92 | 0.0 | 1.0 | 0.00 | 0.00 | 0.00 | 48 | 1013.3 | |
| 20260902010325 | 92 | 0.0 | 0.0 | 0.00 | 0.00 | 0.00 | 48 | 1013.2 | |
| 20260902005823 | 92 | 0.0 | 2.0 | 0.00 | 0.00 | 0.00 | 47 | 1013.2 | |
| 20260902005321 | 93 | 0.0 | 2.0 | 0.00 | 0.00 | 0.00 | 46 | 1013.3 | |
| 20260902004817 | 93 | 0.0 | 1.0 | 0.00 | 0.00 | 0.00 | 46 | 1013.3 | |
| 20260902004315 | 93 | 0.0 | 1.0 | 0.00 | 0.00 | 0.00 | 45 | 1013.3 | |
| 20260902003813 | 94 | 0.0 | 3.0 | 0.00 | 0.00 | 0.00 | 44 | 1013.4 | |
| 20260902003311 | 94 | 0.0 | 3.0 | 0.00 | 0.00 | 0.00 | 44 | 1013.4 | |
| 20260902002807 | 94 | 0.0 | 2.0 | 0.00 | 0.00 | 0.00 | 44 | 1013.4 | |
| 20260902002306 | 95 | 0.0 | 3.0 | 0.00 | 0.00 | 0.00 | 44 | 1013.5 | |
| 20260902001803 | 95 | 0.0 | 3.0 | 0.00 | 0.00 | 0.00 | 44 | 1013.5 | |
| 20260902001259 | 95 | 0.0 | 1.0 | 0.00 | 0.00 | 0.00 | 44 | 1013.5 | |
| 20260902000757 | 95 | 0.0 | 5.0 | 0.00 | 0.00 | 0.00 | 43 | 1013.5 | |
| 20260902000257 | 95 | 0.0 | 5.0 | 0.00 | 0.00 | 0.00 | 43 | 1013.4 | |
| 20260901235751 | 95 | 0.0 | 2.0 | 0.00 | 0.00 | 0.00 | 43 | 1013.4 | |
| 20260901235249 | 95 | 0.0 | 3.0 | 0.00 | 0.00 | 0.00 | 43 | 1013.5 | |
| 20260901234747 | 96 | 0.0 | 3.0 | 0.00 | 0.00 | 0.00 | 42 | 1013.4 | |
| 20260901234245 | 97 | 0.0 | 4.0 | 0.00 | 0.00 | 0.00 | 41 | 1013.4 | |
| 20260901233741 | 98 | 0.0 | 4.0 | 0.00 | 0.00 | 0.00 | 40 | 1013.4 | |
| 20260901233239 | 99 | 0.0 | 3.0 | 0.00 | 0.00 | 0.00 | 40 | 1013.4 | |
| 20260901232737 | 99 | 0.0 | 3.0 | 0.00 | 0.00 | 0.00 | 40 | 1013.4 | |
| 20260901232235 | 99 | 0.0 | 5.0 | 0.00 | 0.00 | 0.00 | 39 | 1013.3 | |
| 20260901231731 | 100 | 196 | 1.0 | 5.0 | 0.00 | 0.00 | 0.00 | 38 | 1013.4 |
| 20260901231229 | 101 | 194 | 1.0 | 3.0 | 0.00 | 0.00 | 0.00 | 38 | 1013.3 |
| 20260901230727 | 101 | 0.0 | 2.0 | 0.00 | 0.00 | 0.00 | 37 | 1013.4 | |
| 20260901230225 | 101 | 0.0 | 3.0 | 0.00 | 0.00 | 0.00 | 37 | 1013.3 | |
| 20260901225721 | 101 | 0.0 | 3.0 | 0.00 | 0.00 | 0.00 | 37 | 1013.4 | |
| 20260901225219 | 101 | 0.0 | 4.0 | 0.00 | 0.00 | 0.00 | 38 | 1013.4 | |
| 20260901224717 | 101 | 0.0 | 4.0 | 0.00 | 0.00 | 0.00 | 38 | 1013.4 | |
| 20260901224215 | 101 | 0.0 | 3.0 | 0.00 | 0.00 | 0.00 | 38 | 1013.4 | |
| 20260901223711 | 100 | 202 | 1.0 | 3.0 | 0.00 | 0.00 | 0.00 | 39 | 1013.4 |
| 20260901223209 | 100 | 202 | 1.0 | 4.0 | 0.00 | 0.00 | 0.00 | 39 | 1013.4 |
| 20260901222707 | 99 | 0.0 | 4.0 | 0.00 | 0.00 | 0.00 | 39 | 1013.4 | |
| 20260901222205 | 99 | 0.0 | 1.0 | 0.00 | 0.00 | 0.00 | 39 | 1013.4 | |
| 20260901221701 | 99 | 0.0 | 4.0 | 0.00 | 0.00 | 0.00 | 38 | 1013.6 | |
| 20260901221159 | 101 | 0.0 | 4.0 | 0.00 | 0.00 | 0.00 | 38 | 1013.6 | |
| 20260901220657 | 102 | 0.0 | 2.0 | 0.00 | 0.00 | 0.00 | 37 | 1013.5 | |
| 20260901220155 | 101 | 0.0 | 5.0 | 0.00 | 0.00 | 0.00 | 39 | 1013.5 | |
| 20260901215651 | 100 | 203 | 1.0 | 5.0 | 0.00 | 0.00 | 0.00 | 39 | 1013.5 |
| 20260901215149 | 99 | 0.0 | 2.0 | 0.00 | 0.00 | 0.00 | 39 | 1013.5 | |
| 20260901214647 | 98 | 0.0 | 2.0 | 0.00 | 0.00 | 0.00 | 39 | 1013.5 | |
| 20260901214145 | 99 | 0.0 | 3.0 | 0.00 | 0.00 | 0.00 | 38 | 1013.6 | |
| 20260901213641 | 99 | 0.0 | 4.0 | 0.00 | 0.00 | 0.00 | 39 | 1013.6 | |
| 20260901213139 | 100 | 199 | 1.0 | 4.0 | 0.00 | 0.00 | 0.00 | 39 | 1013.7 |
| 20260901212635 | 99 | 0.0 | 2.0 | 0.00 | 0.00 | 0.00 | 39 | 1013.7 | |
| 20260901212133 | 98 | 0.0 | 2.0 | 0.00 | 0.00 | 0.00 | 40 | 1013.7 | |
| 20260901211631 | 98 | 0.0 | 3.0 | 0.00 | 0.00 | 0.00 | 40 | 1013.9 | |
| 20260901211129 | 99 | 0.0 | 3.0 | 0.00 | 0.00 | 0.00 | 40 | 1013.9 | |
| 20260901210625 | 99 | 0.0 | 1.0 | 0.00 | 0.00 | 0.00 | 39 | 1014.0 | |
| 20260901210123 | 99 | 0.0 | 2.0 | 0.00 | 0.00 | 0.00 | 38 | 1013.9 | |
| 20260901205621 | 98 | 0.0 | 2.0 | 0.00 | 0.00 | 0.00 | 40 | 1014.1 | |
| 20260901205119 | 99 | 0.0 | 1.0 | 0.00 | 0.00 | 0.00 | 39 | 1014.2 | |
| 20260901204615 | 100 | 0.0 | 5.0 | 0.00 | 0.00 | 0.00 | 38 | 1014.2 | |
| 20260901204113 | 100 | 0.0 | 5.0 | 0.00 | 0.00 | 0.00 | 40 | 1014.3 | |
| 20260901203611 | 98 | 200 | 1.0 | 4.0 | 0.00 | 0.00 | 0.00 | 41 | 1014.2 |
| 20260901203109 | 98 | 0.0 | 4.0 | 0.00 | 0.00 | 0.00 | 39 | 1014.3 | |
| 20260901202605 | 98 | 200 | 1.0 | 4.0 | 0.00 | 0.00 | 0.00 | 40 | 1014.4 |
| 20260901202103 | 99 | 0.0 | 1.0 | 0.00 | 0.00 | 0.00 | 40 | 1014.5 | |
| 20260901201601 | 99 | 0.0 | 2.0 | 0.00 | 0.00 | 0.00 | 41 | 1014.6 | |
| 20260901201059 | 99 | 0.0 | 5.0 | 0.00 | 0.00 | 0.00 | 41 | 1014.6 | |
| 20260901200555 | 98 | 200 | 1.0 | 5.0 | 0.00 | 0.00 | 0.00 | 41 | 1014.8 |
| 20260901200053 | 98 | 0.0 | 5.0 | 0.00 | 0.00 | 0.00 | 41 | 1014.9 | |
| 20260901195551 | 97 | 0.0 | 8.0 | 0.00 | 0.00 | 0.00 | 42 | 1014.8 | |
| 20260901195049 | 98 | 200 | 4.0 | 8.0 | 0.00 | 0.00 | 0.00 | 41 | 1014.9 |
| 20260901194545 | 99 | 200 | 1.0 | 3.0 | 0.00 | 0.00 | 0.00 | 41 | 1015.0 |
| 20260901194043 | 99 | 200 | 1.0 | 3.0 | 0.00 | 0.00 | 0.00 | 40 | 1015.0 |
| 20260901193541 | 100 | 0.0 | 6.0 | 0.00 | 0.00 | 0.00 | 40 | 1015.2 | |
| 20260901193039 | 99 | 0.0 | 6.0 | 0.00 | 0.00 | 0.00 | 40 | 1015.2 | |
| 20260901192535 | 99 | 0.0 | 2.0 | 0.00 | 0.00 | 0.00 | 42 | 1015.3 | |
| 20260901192033 | 98 | 0.0 | 4.0 | 0.00 | 0.00 | 0.00 | 43 | 1015.3 | |
| 20260901191531 | 97 | 200 | 1.0 | 4.0 | 0.00 | 0.00 | 0.00 | 43 | 1015.4 |
| 20260901191029 | 97 | 200 | 1.0 | 5.0 | 0.00 | 0.00 | 0.00 | 45 | 1015.4 |
| 20260901190525 | 97 | 200 | 1.0 | 5.0 | 0.00 | 0.00 | 0.00 | 44 | 1015.5 |
| 20260901190023 | 98 | 0.0 | 5.0 | 0.00 | 0.00 | 0.00 | 43 | 1015.6 | |
| 20260901185519 | 98 | 0.0 | 5.0 | 0.00 | 0.00 | 0.00 | 44 | 1015.7 | |
| 20260901185017 | 97 | 200 | 1.0 | 5.0 | 0.00 | 0.00 | 0.00 | 45 | 1015.7 |
| 20260901184515 | 97 | 200 | 1.0 | 5.0 | 0.00 | 0.00 | 0.00 | 45 | 1015.8 |
| 20260901184013 | 96 | 0.0 | 7.0 | 0.00 | 0.00 | 0.00 | 46 | 1015.8 | |
| 20260901183509 | 95 | 200 | 1.0 | 6.0 | 0.00 | 0.00 | 0.00 | 48 | 1016.1 |
| 20260901183007 | 94 | 200 | 1.0 | 5.0 | 0.00 | 0.00 | 0.00 | 48 | 1016.1 |
| 20260901182505 | 94 | 0.0 | 5.0 | 0.00 | 0.00 | 0.00 | 48 | 1016.2 | |
| 20260901182003 | 94 | 200 | 1.0 | 6.0 | 0.00 | 0.00 | 0.00 | 48 | 1016.3 |
| 20260901181458 | 95 | 203 | 2.0 | 6.0 | 0.00 | 0.00 | 0.00 | 46 | 1016.4 |
| 20260901180956 | 96 | 202 | 1.0 | 7.0 | 0.00 | 0.00 | 0.00 | 46 | 1016.4 |
| 20260901180455 | 96 | 0.0 | 7.0 | 0.00 | 0.00 | 0.00 | 46 | 1016.4 | |
| 20260901175952 | 95 | 0.0 | 7.0 | 0.00 | 0.00 | 0.00 | 46 | 1016.6 | |
| 20260901175448 | 95 | 203 | 2.0 | 7.0 | 0.00 | 0.00 | 0.00 | 45 | 1016.7 |
| 20260901174946 | 95 | 203 | 2.0 | 6.0 | 0.00 | 0.00 | 0.00 | 46 | 1016.7 |
| 20260901174444 | 96 | 203 | 1.0 | 5.0 | 0.00 | 0.00 | 0.00 | 47 | 1016.8 |
| 20260901173942 | 95 | 203 | 1.0 | 4.0 | 0.00 | 0.00 | 0.00 | 48 | 1016.9 |
| 20260901173438 | 95 | 203 | 1.0 | 5.0 | 0.00 | 0.00 | 0.00 | 48 | 1017.0 |
| 20260901172936 | 95 | 204 | 2.0 | 5.0 | 0.00 | 0.00 | 0.00 | 48 | 1017.0 |
| 20260901172434 | 94 | 204 | 1.0 | 5.0 | 0.00 | 0.00 | 0.00 | 49 | 1017.1 |
| 20260901171932 | 94 | 0.0 | 7.0 | 0.00 | 0.00 | 0.00 | 50 | 1017.2 | |
| 20260901171428 | 94 | 204 | 2.0 | 7.0 | 0.00 | 0.00 | 0.00 | 50 | 1017.2 |
| 20260901170926 | 94 | 205 | 1.0 | 5.0 | 0.00 | 0.00 | 0.00 | 50 | 1017.3 |
| 20260901170424 | 93 | 205 | 1.0 | 5.0 | 0.00 | 0.00 | 0.00 | 50 | 1017.3 |
| 20260901165922 | 94 | 205 | 1.0 | 4.0 | 0.00 | 0.00 | 0.00 | 51 | 1017.4 |
| 20260901165418 | 93 | 0.0 | 2.0 | 0.00 | 0.00 | 0.00 | 51 | 1017.4 | |
| 20260901164916 | 92 | 0.0 | 4.0 | 0.00 | 0.00 | 0.00 | 52 | 1017.4 | |
| 20260901164414 | 92 | 205 | 1.0 | 4.0 | 0.00 | 0.00 | 0.00 | 53 | 1017.4 |
| 20260901163912 | 91 | 0.0 | 5.0 | 0.00 | 0.00 | 0.00 | 54 | 1017.4 | |
| 20260901163408 | 91 | 0.0 | 4.0 | 0.00 | 0.00 | 0.00 | 55 | 1017.5 | |
| 20260901162906 | 91 | 0.0 | 4.0 | 0.00 | 0.00 | 0.00 | 54 | 1017.6 | |
| 20260901162402 | 91 | 0.0 | 2.0 | 0.00 | 0.00 | 0.00 | 55 | 1017.7 | |
| 20260901161900 | 91 | 0.0 | 5.0 | 0.00 | 0.00 | 0.00 | 55 | 1017.7 | |
| 20260901161358 | 91 | 205 | 2.0 | 5.0 | 0.00 | 0.00 | 0.00 | 56 | 1017.7 |
| 20260901160856 | 90 | 0.0 | 4.0 | 0.00 | 0.00 | 0.00 | 56 | 1017.7 | |
| 20260901160352 | 90 | 205 | 1.0 | 4.0 | 0.00 | 0.00 | 0.00 | 57 | 1017.7 |
| 20260901155850 | 90 | 0.0 | 6.0 | 0.00 | 0.00 | 0.00 | 56 | 1017.9 | |
| 20260901155348 | 90 | 0.0 | 3.0 | 0.00 | 0.00 | 0.00 | 56 | 1017.8 | |
| 20260901154846 | 90 | 0.0 | 3.0 | 0.00 | 0.00 | 0.00 | 56 | 1017.8 | |
| 20260901154342 | 89 | 0.0 | 3.0 | 0.00 | 0.00 | 0.00 | 58 | 1017.7 | |
| 20260901153840 | 89 | 205 | 1.0 | 3.0 | 0.00 | 0.00 | 0.00 | 57 | 1017.7 |
| 20260901153338 | 89 | 0.0 | 4.0 | 0.00 | 0.00 | 0.00 | 61 | 1017.7 | |
| 20260901152836 | 88 | 0.0 | 4.0 | 0.00 | 0.00 | 0.00 | 60 | 1017.6 | |
| 20260901152332 | 87 | 0.0 | 2.0 | 0.00 | 0.00 | 0.00 | 61 | 1017.6 | |
| 20260901151830 | 87 | 0.0 | 3.0 | 0.00 | 0.00 | 0.00 | 64 | 1017.5 | |
| 20260901151328 | 86 | 0.0 | 3.0 | 0.00 | 0.00 | 0.00 | 63 | 1017.6 | |
| 20260901150826 | 86 | 0.0 | 2.0 | 0.00 | 0.00 | 0.00 | 65 | 1017.7 |